sat.trackr.live / text

‹ back to catalog

MANDRAKE 2 ABLE

NORAD 48907 · 2021-059AE

PAYLOAD ACTIVE UNKNOWN

§ Identity

Operator
Country
US
Launch date
2021-06-30
Launch site
AFETR
Launch vehicle
Mass (kg)
RCS (m²)

External: N2YO · Heavens-Above · Gunter

§ Orbital elements

Epoch: 2026-05-25T01:32:52.772352Z

Period
92.67 min
Inclination
97.7046°
Eccentricity
0.0006224
Mean motion
15.53939763 rev/d
Perigee alt
401.0 km
Apogee alt
409.5 km
Semi-major
6,783.4 km
B*
3.1305e-4
RAAN
333.1037°
Arg perigee
82.7997°
Mean anomaly
277.3963°
Rev number
27,353

§ Raw data

MANDRAKE 2 ABLE1 48907U 21059AE  26145.06449968  .00020124  00000+0  31305-3 0  99922 48907  97.7046 333.1037 0006224  82.7997 277.3963 15.53939763273537

JSON: /api/v1/satellites/48907 · /tle

For live sub-satellite position, see the globe view (requires WebGL).

§ Visibility from observer

Set your observer location to see the next 7 days of passes ≥ 10°. The values pass through the URL so the page stays shareable.

No JS? Fill the form by hand. The geolocation button needs JavaScript.

§ Radio — SatNOGS DB

ModeDescriptionDownlinkUplink
FSK Mode U - Downlink 400.498 MHz

1 transmitter · refreshed weekly from db.satnogs.org